Location: Cambroso
(45.2833°N, 12.0850°E)
Time: 16:30:20
(UTC+00:00)

Cosmos 1892 Rocket - Pass Details

Date: 21 January 2021
Orbit: 607 x 632 km, 82.5° (Epoch: 25 February)

Event Time Altitude Azimuth Distance (km) Brightness Sun altitude
Rises 17:09:48 0° 187° (S) 2,862 7.3 -11.6°
Reaches altitude 10° 17:12:01 10° 187° (S) 1,959 6.4 -12.0°
Maximum altitude 17:16:21 89° 120° (ESE) 615 3.5 -12.7°
Drops below altitude 10° 17:20:43 10° 9° (N) 1,968 5.9 -13.5°
Sets 17:22:56 0° 9° (N) 2,876 6.7 -13.9°
